Flag Weather past 2 weeks in Chennai, Tamil Nadu, India

Now
79 °F

Passing clouds.


Feels Like: 82 °F
Forecast: 79 / 85 °F
Wind: No wind

Location: Madras / Minambakkam

Current Time: Oct 31, 2014 at 12:05:46 AM

Latest Report: Oct 30, 2014 at 11:10 PM


Visibility: 3 mi

Pressure: 29.86 "Hg

Humidity: 84%

Dew point: 73 °F

Location of ChennaiLocation

Historic Weather in Chennai — Graph

°F

Chennai temperature yesterday

Maximum temperature yesterday: 88 °F (at 11:40 AM)
Minimum temperature yesterday: 77 °F (at 3:10 AM)
Average temperature yesterday: 82 °F

Past Weeks' High & Low Weather Summary

 TemperatureHumidityPressure
High91 °F (Oct 16, 12:10 PM)100% (Oct 17, 12:40 PM)29.98 "Hg (Oct 17, 12:40 PM)
Low75 °F (Oct 18, 4:40 AM)55% (Oct 30, 12:40 PM)29.74 "Hg (Oct 28, 2:40 PM)
Average81 °F87%29.85 "Hg
* Reported Oct 15 10:40 PM — Oct 30 10:40 PM, Chennai, Weather by CustomWeather, © 2014

Note: Actual official high and low records may vary slightly from our data, if they occured in-between our weather recording intervals... More about our weather records

Advertising

Chennai weather history for previous 24 hours

 ConditionsComfort  
Time TempWeatherWind HumidityBarometerVisibility
10:40 PM
Oct 30
79 °FPassing clouds.No wind84%29.86 "Hg3 mi
10:10 PM81 °FPassing clouds.No wind84%29.86 "Hg3 mi
9:40 PM79 °FPassing clouds.No wind89%29.86 "Hg3 mi
9:10 PM81 °FPassing clouds.3 mph84%29.86 "Hg3 mi
8:40 PM81 °FHaze.3 mph84%29.86 "Hg3 mi
8:10 PM81 °FPassing clouds.5 mph79%29.86 "Hg3 mi
7:40 PM81 °FFog.5 mph79%29.83 "Hg3 mi
7:10 PM82 °FFog.6 mph74%29.83 "Hg3 mi
6:40 PM82 °FPassing clouds.8 mph74%29.83 "Hg3 mi
6:10 PM82 °FScattered clouds.9 mph74%29.80 "Hg3 mi
5:40 PM84 °FScattered clouds.8 mph70%29.80 "Hg3 mi
4:40 PM84 °FScattered clouds.9 mph66%29.77 "Hg4 mi
4:10 PM86 °FScattered clouds.10 mph59%29.77 "Hg4 mi
3:40 PM88 °FScattered clouds.7 mph55%29.77 "Hg4 mi
3:10 PM88 °FScattered clouds.10 mph55%29.77 "Hg4 mi
2:40 PM88 °FScattered clouds.9 mph55%29.77 "Hg4 mi
1:40 PM88 °FScattered clouds.10 mph55%29.80 "Hg4 mi
1:10 PM88 °FPassing clouds.9 mph55%29.80 "Hg4 mi
12:40 PM88 °FPassing clouds.9 mph55%29.80 "Hg4 mi
12:10 PM88 °FHaze.9 mph59%29.83 "Hg3 mi
11:40 AM88 °FHaze.12 mph59%29.83 "Hg3 mi
10:40 AM86 °FHaze.9 mph62%29.89 "Hg2 mi
10:10 AM86 °FHaze.12 mph62%29.89 "Hg2 mi
9:40 AM86 °FHaze.9 mph66%29.89 "Hg2 mi
9:10 AM84 °FHaze.9 mph70%29.89 "Hg2 mi
8:40 AM82 °FHaze.8 mph79%29.89 "Hg2 mi
8:10 AM82 °FHaze.6 mph79%29.89 "Hg1 mi
7:40 AM81 °FFog.6 mph84%29.89 "Hg1 mi
7:10 AM79 °FFog.6 mph94%29.86 "Hg1 mi
6:40 AM77 °FFog.No wind94%29.86 "Hg1 mi
5:40 AM77 °FPassing clouds.No wind94%29.83 "Hg2 mi
5:10 AM77 °FHaze.No wind94%29.83 "Hg2 mi
4:40 AM77 °FHaze.No wind94%29.83 "Hg3 mi
4:10 AM77 °FPassing clouds.No wind94%29.83 "Hg3 mi
3:40 AM77 °FPassing clouds.No wind94%29.83 "Hg3 mi
3:10 AM77 °FPassing clouds.No wind94%29.83 "Hg3 mi
2:10 AM79 °FPassing clouds.No wind84%29.83 "Hg4 mi
1:40 AM79 °FPassing clouds.No wind84%29.83 "Hg4 mi
1:10 AM79 °FPassing clouds.No wind84%29.83 "Hg4 mi
12:40 AM81 °FPassing clouds.No wind79%29.83 "Hg4 mi
12:10 AM81 °FPassing clouds.5 mph79%29.86 "Hg4 mi
Weather by CustomWeather, © 2014

See weather overviewHow to use our weather pages